Year,Month,Day,Hour,Minute,Value (Times are PST for temperature in C)
2019,04,02,00,00,9.40
2019,04,02,00,01,9.40
2019,04,02,00,02,9.40
2019,04,02,00,03,9.30
2019,04,02,00,04,9.30
2019,04,02,00,05,9.20
2019,04,02,00,06,9.20
2019,04,02,00,07,9.10
2019,04,02,00,08,9.10
2019,04,02,00,09,9.10
2019,04,02,00,10,9.20
2019,04,02,00,11,9.20
2019,04,02,00,12,9.20
2019,04,02,00,13,9.20
2019,04,02,00,14,9.20
2019,04,02,00,15,9.20
2019,04,02,00,16,9.10
2019,04,02,00,17,9.00
2019,04,02,00,18,9.00
2019,04,02,00,19,9.00
2019,04,02,00,20,8.90
2019,04,02,00,21,8.90
2019,04,02,00,22,8.80
2019,04,02,00,23,8.80
2019,04,02,00,24,8.70
2019,04,02,00,25,8.70
2019,04,02,00,26,8.70
2019,04,02,00,27,8.70
2019,04,02,00,28,8.70
2019,04,02,00,29,8.70
2019,04,02,00,30,8.70
2019,04,02,00,31,8.60
2019,04,02,00,32,8.60
2019,04,02,00,33,8.60
2019,04,02,00,34,8.50
2019,04,02,00,35,8.40
2019,04,02,00,36,8.40
2019,04,02,00,37,8.40
2019,04,02,00,38,8.30
2019,04,02,00,39,8.30
2019,04,02,00,40,8.30
2019,04,02,00,41,8.20
2019,04,02,00,42,8.20
2019,04,02,00,43,8.20
2019,04,02,00,44,8.20
2019,04,02,00,45,8.10
2019,04,02,00,46,8.10
2019,04,02,00,47,8.00
2019,04,02,00,48,8.00
2019,04,02,00,49,8.00
2019,04,02,00,50,7.90
2019,04,02,00,51,7.90
2019,04,02,00,52,7.90
2019,04,02,00,53,7.90
2019,04,02,00,54,7.90
2019,04,02,00,55,7.90
2019,04,02,00,56,7.90
2019,04,02,00,57,7.90
2019,04,02,00,58,7.80
2019,04,02,00,59,7.80
2019,04,02,01,00,7.70
2019,04,02,01,01,7.70
2019,04,02,01,02,7.70
2019,04,02,01,03,7.70
2019,04,02,01,04,7.60
2019,04,02,01,05,7.60
2019,04,02,01,06,7.60
2019,04,02,01,07,7.60
2019,04,02,01,08,7.60
2019,04,02,01,09,7.60
2019,04,02,01,10,7.60
2019,04,02,01,11,7.50
2019,04,02,01,12,7.50
2019,04,02,01,13,7.40
2019,04,02,01,14,7.40
2019,04,02,01,15,7.40
2019,04,02,01,16,7.40
2019,04,02,01,17,7.50
2019,04,02,01,18,7.60
2019,04,02,01,19,7.70
2019,04,02,01,20,7.70
2019,04,02,01,21,7.70
2019,04,02,01,22,7.80
2019,04,02,01,23,7.80
2019,04,02,01,24,7.80
2019,04,02,01,25,7.90
2019,04,02,01,26,7.90
2019,04,02,01,27,7.90
2019,04,02,01,28,7.90
2019,04,02,01,29,7.90
2019,04,02,01,30,7.90
2019,04,02,01,31,7.90
2019,04,02,01,32,7.90
2019,04,02,01,33,7.90
2019,04,02,01,34,7.90
2019,04,02,01,35,7.90
2019,04,02,01,36,7.90
2019,04,02,01,37,7.90
2019,04,02,01,38,8.00
2019,04,02,01,39,8.00
2019,04,02,01,40,8.00
2019,04,02,01,41,8.10
2019,04,02,01,42,8.20
2019,04,02,01,43,8.30
2019,04,02,01,44,8.40
2019,04,02,01,45,8.40
2019,04,02,01,46,8.40
2019,04,02,01,47,8.50
2019,04,02,01,48,8.50
2019,04,02,01,49,8.50
2019,04,02,01,50,8.50
2019,04,02,01,51,8.50
2019,04,02,01,52,8.50
2019,04,02,01,53,8.60
2019,04,02,01,54,8.60
2019,04,02,01,55,8.60
2019,04,02,01,56,8.60
2019,04,02,01,57,8.60
2019,04,02,01,58,8.60
2019,04,02,01,59,8.60
2019,04,02,02,00,8.60
2019,04,02,02,01,8.50
2019,04,02,02,02,8.40
2019,04,02,02,03,8.40
2019,04,02,02,04,8.30
2019,04,02,02,05,8.30
2019,04,02,02,06,8.20
2019,04,02,02,07,8.20
2019,04,02,02,08,8.20
2019,04,02,02,09,8.20
2019,04,02,02,10,8.20
2019,04,02,02,11,8.20
2019,04,02,02,12,8.20
2019,04,02,02,13,8.20
2019,04,02,02,14,8.20
2019,04,02,02,15,8.30
2019,04,02,02,16,8.30
2019,04,02,02,17,8.30
2019,04,02,02,18,8.20
2019,04,02,02,19,8.20
2019,04,02,02,20,8.20
2019,04,02,02,21,8.20
2019,04,02,02,22,8.10
2019,04,02,02,23,8.10
2019,04,02,02,24,8.10
2019,04,02,02,25,8.00
2019,04,02,02,26,8.00
2019,04,02,02,27,8.00
2019,04,02,02,28,8.00
2019,04,02,02,29,8.00
2019,04,02,02,30,8.00
2019,04,02,02,31,8.10
2019,04,02,02,32,8.00
2019,04,02,02,33,8.00
2019,04,02,02,34,8.00
2019,04,02,02,35,8.00
2019,04,02,02,36,8.00
2019,04,02,02,37,8.00
2019,04,02,02,38,8.00
2019,04,02,02,39,8.00
2019,04,02,02,40,7.90
2019,04,02,02,41,7.90
2019,04,02,02,42,7.90
2019,04,02,02,43,7.90
2019,04,02,02,44,7.80
2019,04,02,02,45,7.80
2019,04,02,02,46,7.70
2019,04,02,02,47,7.70
2019,04,02,02,48,7.60
2019,04,02,02,49,7.60
2019,04,02,02,50,7.50
2019,04,02,02,51,7.40
2019,04,02,02,52,7.30
2019,04,02,02,53,7.20
2019,04,02,02,54,7.10
2019,04,02,02,55,7.10
2019,04,02,02,56,7.00
2019,04,02,02,57,7.00
2019,04,02,02,58,6.90
2019,04,02,02,59,6.90
2019,04,02,03,00,6.80
2019,04,02,03,01,6.90
2019,04,02,03,02,6.80
2019,04,02,03,03,6.80
2019,04,02,03,04,6.80
2019,04,02,03,05,6.80
2019,04,02,03,06,6.70
2019,04,02,03,07,6.60
2019,04,02,03,08,6.60
2019,04,02,03,09,6.50
2019,04,02,03,10,6.40
2019,04,02,03,11,6.40
2019,04,02,03,12,6.40
2019,04,02,03,13,6.40
2019,04,02,03,14,6.30
2019,04,02,03,15,6.30
2019,04,02,03,16,6.40
2019,04,02,03,17,6.40
2019,04,02,03,18,6.40
2019,04,02,03,19,6.40
2019,04,02,03,20,6.30
2019,04,02,03,21,6.30
2019,04,02,03,22,6.40
2019,04,02,03,23,6.40
2019,04,02,03,24,6.40
2019,04,02,03,25,6.40
2019,04,02,03,26,6.40
2019,04,02,03,27,6.40
2019,04,02,03,28,6.50
2019,04,02,03,29,6.60
2019,04,02,03,30,6.70
2019,04,02,03,31,6.80
2019,04,02,03,32,6.90
2019,04,02,03,33,7.00
2019,04,02,03,34,7.00
2019,04,02,03,35,7.10
2019,04,02,03,36,7.20
2019,04,02,03,37,7.20
2019,04,02,03,38,7.20
2019,04,02,03,39,7.20
2019,04,02,03,40,7.30
2019,04,02,03,41,7.30
2019,04,02,03,42,7.30
2019,04,02,03,43,7.40
2019,04,02,03,44,7.40
2019,04,02,03,45,7.40
2019,04,02,03,46,7.40
2019,04,02,03,47,7.40
2019,04,02,03,48,7.40
2019,04,02,03,49,7.30
2019,04,02,03,50,7.20
2019,04,02,03,51,7.20
2019,04,02,03,52,7.10
2019,04,02,03,53,7.10
2019,04,02,03,54,7.10
2019,04,02,03,55,7.10
2019,04,02,03,56,7.00
2019,04,02,03,57,7.00
2019,04,02,03,58,6.90
2019,04,02,03,59,6.90
2019,04,02,04,00,6.90
2019,04,02,04,01,6.90
2019,04,02,04,02,6.90
2019,04,02,04,03,7.00
2019,04,02,04,04,7.00
2019,04,02,04,05,7.10
2019,04,02,04,06,7.10
2019,04,02,04,07,7.10
2019,04,02,04,08,7.10
2019,04,02,04,09,7.00
2019,04,02,04,10,7.00
2019,04,02,04,11,7.00
2019,04,02,04,12,7.00
2019,04,02,04,13,7.00
2019,04,02,04,14,7.00
2019,04,02,04,15,7.00
2019,04,02,04,16,7.00
2019,04,02,04,17,6.90
2019,04,02,04,18,6.90
2019,04,02,04,19,6.90
2019,04,02,04,20,6.90
2019,04,02,04,21,6.80
2019,04,02,04,22,6.70
2019,04,02,04,23,6.70
2019,04,02,04,24,6.70
2019,04,02,04,25,6.60
2019,04,02,04,26,6.60
2019,04,02,04,27,6.50
2019,04,02,04,28,6.40
2019,04,02,04,29,6.30
2019,04,02,04,30,6.20
2019,04,02,04,31,6.20
2019,04,02,04,32,6.20
2019,04,02,04,33,6.20
2019,04,02,04,34,6.30
2019,04,02,04,35,6.30
2019,04,02,04,36,6.30
2019,04,02,04,37,6.30
2019,04,02,04,38,6.20
2019,04,02,04,39,6.10
2019,04,02,04,40,6.00
2019,04,02,04,41,5.90
2019,04,02,04,42,5.90
2019,04,02,04,43,5.80
2019,04,02,04,44,5.70
2019,04,02,04,45,5.70
2019,04,02,04,46,5.70
2019,04,02,04,47,5.80
2019,04,02,04,48,5.80
2019,04,02,04,49,5.80
2019,04,02,04,50,5.80
2019,04,02,04,51,5.90
2019,04,02,04,52,5.90
2019,04,02,04,53,6.00
2019,04,02,04,54,6.00
2019,04,02,04,55,6.00
2019,04,02,04,56,5.90
2019,04,02,04,57,5.90
2019,04,02,04,58,6.00
2019,04,02,04,59,6.00
2019,04,02,05,00,6.10
2019,04,02,05,01,6.20
2019,04,02,05,02,6.20
2019,04,02,05,03,6.30
2019,04,02,05,04,6.30
2019,04,02,05,05,6.30
2019,04,02,05,06,6.30
2019,04,02,05,07,6.20
2019,04,02,05,08,6.00
2019,04,02,05,09,5.90
2019,04,02,05,10,5.80
2019,04,02,05,11,5.80
2019,04,02,05,12,5.80
2019,04,02,05,13,5.80
2019,04,02,05,14,5.80
2019,04,02,05,15,5.80
2019,04,02,05,16,5.80
2019,04,02,05,17,5.80
2019,04,02,05,18,5.80
2019,04,02,05,19,5.80
2019,04,02,05,20,5.80
2019,04,02,05,21,5.80
2019,04,02,05,22,5.80
2019,04,02,05,23,5.80
2019,04,02,05,24,5.80
2019,04,02,05,25,5.80
2019,04,02,05,26,5.90
2019,04,02,05,27,5.90
2019,04,02,05,28,6.00
2019,04,02,05,29,6.00
2019,04,02,05,30,6.10
2019,04,02,05,31,6.20
2019,04,02,05,32,6.20
2019,04,02,05,33,6.20
2019,04,02,05,34,6.20
2019,04,02,05,35,6.20
2019,04,02,05,36,6.20
2019,04,02,05,37,6.20
2019,04,02,05,38,6.20
2019,04,02,05,39,6.20
2019,04,02,05,40,6.20
2019,04,02,05,41,6.20
2019,04,02,05,42,6.20
2019,04,02,05,43,6.20
2019,04,02,05,44,6.10
2019,04,02,05,45,6.20
2019,04,02,05,46,6.20
2019,04,02,05,47,6.20
2019,04,02,05,48,6.30
2019,04,02,05,49,6.30
2019,04,02,05,50,6.30
2019,04,02,05,51,6.20
2019,04,02,05,52,6.20
2019,04,02,05,53,6.20
2019,04,02,05,54,6.20
2019,04,02,05,55,6.10
2019,04,02,05,56,6.10
2019,04,02,05,57,6.10
2019,04,02,05,58,6.20
2019,04,02,05,59,6.30
2019,04,02,06,00,6.30
2019,04,02,06,01,6.30
2019,04,02,06,02,6.30
2019,04,02,06,03,6.20
2019,04,02,06,04,6.20
2019,04,02,06,05,6.20
2019,04,02,06,06,6.20
2019,04,02,06,07,6.20
2019,04,02,06,08,6.20
2019,04,02,06,09,6.20
2019,04,02,06,10,6.10
2019,04,02,06,11,6.20
2019,04,02,06,12,6.30
2019,04,02,06,13,6.30
2019,04,02,06,14,6.40
2019,04,02,06,15,6.40
2019,04,02,06,16,6.40
2019,04,02,06,17,6.40
2019,04,02,06,18,6.40
2019,04,02,06,19,6.30
2019,04,02,06,20,6.30
2019,04,02,06,21,6.20
2019,04,02,06,22,6.10
2019,04,02,06,23,6.10
2019,04,02,06,24,6.10
2019,04,02,06,25,6.20
2019,04,02,06,26,6.20
2019,04,02,06,27,6.20
2019,04,02,06,28,6.20
2019,04,02,06,29,6.10
2019,04,02,06,30,6.10
2019,04,02,06,31,6.10
2019,04,02,06,32,6.20
2019,04,02,06,33,6.20
2019,04,02,06,34,6.30
2019,04,02,06,35,6.20
2019,04,02,06,36,6.20
2019,04,02,06,37,6.20
2019,04,02,06,38,6.10
2019,04,02,06,39,6.10
2019,04,02,06,40,6.10
2019,04,02,06,41,6.10
2019,04,02,06,42,6.20
2019,04,02,06,43,6.20
2019,04,02,06,44,6.20
2019,04,02,06,45,6.20
2019,04,02,06,46,6.20
2019,04,02,06,47,6.20
2019,04,02,06,48,6.20
2019,04,02,06,49,6.30
2019,04,02,06,50,6.30
2019,04,02,06,51,6.20
2019,04,02,06,52,6.20
2019,04,02,06,53,6.20
2019,04,02,06,54,6.10
2019,04,02,06,55,6.00
2019,04,02,06,56,6.00
2019,04,02,06,57,5.90
2019,04,02,06,58,5.90
2019,04,02,06,59,5.80
2019,04,02,07,00,5.80
2019,04,02,07,01,5.70
2019,04,02,07,02,5.70
2019,04,02,07,03,5.70
2019,04,02,07,04,5.70
2019,04,02,07,05,5.70
2019,04,02,07,06,5.70
2019,04,02,07,07,5.70
2019,04,02,07,08,5.70
2019,04,02,07,09,5.70
2019,04,02,07,10,5.60
2019,04,02,07,11,5.60
2019,04,02,07,12,5.60
2019,04,02,07,13,5.60
2019,04,02,07,14,5.60
2019,04,02,07,15,5.60
2019,04,02,07,16,5.60
2019,04,02,07,17,5.60
2019,04,02,07,18,5.60
2019,04,02,07,19,5.50
2019,04,02,07,20,5.50
2019,04,02,07,21,5.40
2019,04,02,07,22,5.40
2019,04,02,07,23,5.40
2019,04,02,07,24,5.30
2019,04,02,07,25,5.30
2019,04,02,07,26,5.30
2019,04,02,07,27,5.40
2019,04,02,07,28,5.40
2019,04,02,07,29,5.40
2019,04,02,07,30,5.40
2019,04,02,07,31,5.40
2019,04,02,07,32,5.40
2019,04,02,07,33,5.50
2019,04,02,07,34,5.50
2019,04,02,07,35,5.60
2019,04,02,07,36,5.60
2019,04,02,07,37,5.60
2019,04,02,07,38,5.70
2019,04,02,07,39,5.70
2019,04,02,07,40,5.80
2019,04,02,07,41,5.80
2019,04,02,07,42,5.80
2019,04,02,07,43,5.80
2019,04,02,07,44,5.90
2019,04,02,07,45,5.90
2019,04,02,07,46,6.00
2019,04,02,07,47,6.00
2019,04,02,07,48,6.10
2019,04,02,07,49,6.20
2019,04,02,07,50,6.20
2019,04,02,07,51,6.20
2019,04,02,07,52,6.20
2019,04,02,07,53,6.20
2019,04,02,07,54,6.30
2019,04,02,07,55,6.30
2019,04,02,07,56,6.40
2019,04,02,07,57,6.40
2019,04,02,07,58,6.50
2019,04,02,07,59,6.50
2019,04,02,08,00,6.60
2019,04,02,08,01,6.60
2019,04,02,08,02,6.70
2019,04,02,08,03,6.70
2019,04,02,08,04,6.70
2019,04,02,08,05,6.80
2019,04,02,08,06,6.80
2019,04,02,08,07,6.90
2019,04,02,08,08,6.90
2019,04,02,08,09,7.00
2019,04,02,08,10,7.00
2019,04,02,08,11,7.00
2019,04,02,08,12,7.10
2019,04,02,08,13,7.10
2019,04,02,08,14,7.20
2019,04,02,08,15,7.20
2019,04,02,08,16,7.30
2019,04,02,08,17,7.30
2019,04,02,08,18,7.40
2019,04,02,08,19,7.50
2019,04,02,08,20,7.50
2019,04,02,08,21,7.60
2019,04,02,08,22,7.60
2019,04,02,08,23,7.70
2019,04,02,08,24,7.70
2019,04,02,08,25,7.80
2019,04,02,08,26,7.80
2019,04,02,08,27,7.90
2019,04,02,08,28,7.90
2019,04,02,08,29,8.00
2019,04,02,08,30,8.00
2019,04,02,08,31,8.10
2019,04,02,08,32,8.10
2019,04,02,08,33,8.10
2019,04,02,08,34,8.20
2019,04,02,08,35,8.20
2019,04,02,08,36,8.30
2019,04,02,08,37,8.30
2019,04,02,08,38,8.40
2019,04,02,08,39,8.40
2019,04,02,08,40,8.50
2019,04,02,08,41,8.50
2019,04,02,08,42,8.60
2019,04,02,08,43,8.60
2019,04,02,08,44,8.70
2019,04,02,08,45,8.70
2019,04,02,08,46,8.80
2019,04,02,08,47,8.80
2019,04,02,08,48,8.80
2019,04,02,08,49,8.90
2019,04,02,08,50,8.90
2019,04,02,08,51,9.00
2019,04,02,08,52,9.00
2019,04,02,08,53,9.10
2019,04,02,08,54,9.20
2019,04,02,08,55,9.30
2019,04,02,08,56,9.30
2019,04,02,08,57,9.40
2019,04,02,08,58,9.40
2019,04,02,08,59,9.40
2019,04,02,09,00,9.50
2019,04,02,09,01,9.50
2019,04,02,09,02,9.60
2019,04,02,09,03,9.70
2019,04,02,09,04,9.70
2019,04,02,09,05,9.80
2019,04,02,09,06,9.80
2019,04,02,09,07,9.90
2019,04,02,09,08,9.90
2019,04,02,09,09,9.90
2019,04,02,09,10,10.00
2019,04,02,09,11,10.10
2019,04,02,09,12,10.10
2019,04,02,09,13,10.20
2019,04,02,09,14,10.30
2019,04,02,09,15,10.30
2019,04,02,09,16,10.40
2019,04,02,09,17,10.50
2019,04,02,09,18,10.50
2019,04,02,09,19,10.60
2019,04,02,09,20,10.50
2019,04,02,09,21,10.50
2019,04,02,09,22,10.50
2019,04,02,09,23,10.50
2019,04,02,09,24,10.50
2019,04,02,09,25,10.50
2019,04,02,09,26,10.60
2019,04,02,09,27,10.60
2019,04,02,09,28,10.60
2019,04,02,09,29,10.60
2019,04,02,09,30,10.60
2019,04,02,09,31,10.60
2019,04,02,09,32,10.60
2019,04,02,09,33,10.60
2019,04,02,09,34,10.60
2019,04,02,09,35,10.70
2019,04,02,09,36,10.70
2019,04,02,09,37,10.70
2019,04,02,09,38,10.70
2019,04,02,09,39,10.70
2019,04,02,09,40,10.70
2019,04,02,09,41,10.70
2019,04,02,09,42,10.70
2019,04,02,09,43,10.70
2019,04,02,09,44,10.70
2019,04,02,09,45,10.70
2019,04,02,09,46,10.70
2019,04,02,09,47,10.80
2019,04,02,09,48,10.90
2019,04,02,09,49,10.90
2019,04,02,09,50,11.00
2019,04,02,09,51,11.10
2019,04,02,09,52,11.10
2019,04,02,09,53,11.20
2019,04,02,09,54,11.30
2019,04,02,09,55,11.30
2019,04,02,09,56,11.30
2019,04,02,09,57,11.30
2019,04,02,09,58,11.30
2019,04,02,09,59,11.30
2019,04,02,10,00,11.30
2019,04,02,10,01,11.30
2019,04,02,10,02,11.30
2019,04,02,10,03,11.30
2019,04,02,10,04,11.40
2019,04,02,10,05,11.40
2019,04,02,10,06,11.40
2019,04,02,10,07,11.40
2019,04,02,10,08,11.50
2019,04,02,10,09,11.50
2019,04,02,10,10,11.50
2019,04,02,10,11,11.50
2019,04,02,10,12,11.50
2019,04,02,10,13,11.50
2019,04,02,10,14,11.60
2019,04,02,10,15,11.60
2019,04,02,10,16,11.70
2019,04,02,10,17,11.70
2019,04,02,10,18,11.70
2019,04,02,10,19,11.80
2019,04,02,10,20,11.80
2019,04,02,10,21,11.90
2019,04,02,10,22,11.90
2019,04,02,10,23,11.90
2019,04,02,10,24,11.90
2019,04,02,10,25,11.90
2019,04,02,10,26,12.00
2019,04,02,10,27,12.00
2019,04,02,10,28,12.10
2019,04,02,10,29,12.20
2019,04,02,10,30,12.30
2019,04,02,10,31,12.40
2019,04,02,10,32,12.40
2019,04,02,10,33,12.60
2019,04,02,10,34,12.70
2019,04,02,10,35,12.70
2019,04,02,10,36,12.80
2019,04,02,10,37,12.90
2019,04,02,10,38,13.00
2019,04,02,10,39,13.00
2019,04,02,10,40,13.10
2019,04,02,10,41,13.10
2019,04,02,10,42,13.10
2019,04,02,10,43,13.20
2019,04,02,10,44,13.30
2019,04,02,10,45,13.40
2019,04,02,10,46,13.40
2019,04,02,10,47,13.40
2019,04,02,10,48,13.50
2019,04,02,10,49,13.50
2019,04,02,10,50,13.60
2019,04,02,10,51,13.60
2019,04,02,10,52,13.70
2019,04,02,10,53,13.70
2019,04,02,10,54,13.80
2019,04,02,10,55,13.90
2019,04,02,10,56,13.90
2019,04,02,10,57,14.00
2019,04,02,10,58,14.10
2019,04,02,10,59,14.20
2019,04,02,11,00,14.20
2019,04,02,11,01,14.30
2019,04,02,11,02,14.30
2019,04,02,11,03,14.30
2019,04,02,11,04,14.30
2019,04,02,11,05,14.30
2019,04,02,11,06,14.20
2019,04,02,11,07,14.20
2019,04,02,11,08,14.20
2019,04,02,11,09,14.20
2019,04,02,11,10,14.20
2019,04,02,11,11,14.10
2019,04,02,11,12,14.10
2019,04,02,11,13,14.10
2019,04,02,11,14,14.10
2019,04,02,11,15,14.20
2019,04,02,11,16,14.20
2019,04,02,11,17,14.20
2019,04,02,11,18,14.30
2019,04,02,11,19,14.30
2019,04,02,11,20,14.30
2019,04,02,11,21,14.30
2019,04,02,11,22,14.30
2019,04,02,11,23,14.30
2019,04,02,11,24,14.30
2019,04,02,11,25,14.30
2019,04,02,11,26,14.30
2019,04,02,11,27,14.30
2019,04,02,11,28,14.30
2019,04,02,11,29,14.30
2019,04,02,11,30,14.30
2019,04,02,11,31,14.20
2019,04,02,11,32,14.20
2019,04,02,11,33,14.20
2019,04,02,11,34,14.20
2019,04,02,11,35,14.10
2019,04,02,11,36,14.10
2019,04,02,11,37,14.20
2019,04,02,11,38,14.20
2019,04,02,11,39,14.30
2019,04,02,11,40,14.40
2019,04,02,11,41,14.40
2019,04,02,11,42,14.50
2019,04,02,11,43,14.60
2019,04,02,11,44,14.50
2019,04,02,11,45,14.50
2019,04,02,11,46,14.40
2019,04,02,11,47,14.30
2019,04,02,11,48,14.30
2019,04,02,11,49,14.30
2019,04,02,11,50,14.30
2019,04,02,11,51,14.40
2019,04,02,11,52,14.40
2019,04,02,11,53,14.40
2019,04,02,11,54,14.40
2019,04,02,11,55,14.30
2019,04,02,11,56,14.30
2019,04,02,11,57,14.30
2019,04,02,11,58,14.30
2019,04,02,11,59,14.30
2019,04,02,12,00,14.40
2019,04,02,12,01,14.40
2019,04,02,12,02,14.50
2019,04,02,12,03,14.50
2019,04,02,12,04,14.60
2019,04,02,12,05,14.70
2019,04,02,12,06,14.80
2019,04,02,12,07,14.90
2019,04,02,12,08,15.00
2019,04,02,12,09,15.00
2019,04,02,12,10,15.10
2019,04,02,12,11,15.10
2019,04,02,12,12,15.10
2019,04,02,12,13,15.20
2019,04,02,12,14,15.20
2019,04,02,12,15,15.30
2019,04,02,12,16,15.30
2019,04,02,12,17,15.40
2019,04,02,12,18,15.40
2019,04,02,12,19,15.40
2019,04,02,12,20,15.40
2019,04,02,12,21,15.40
2019,04,02,12,22,15.50
2019,04,02,12,23,15.50
2019,04,02,12,24,15.60
2019,04,02,12,25,15.70
2019,04,02,12,26,15.70
2019,04,02,12,27,15.70
2019,04,02,12,28,15.70
2019,04,02,12,29,15.70
2019,04,02,12,30,15.70
2019,04,02,12,31,15.70
2019,04,02,12,32,15.70
2019,04,02,12,33,15.70
2019,04,02,12,34,15.70
2019,04,02,12,35,15.70
2019,04,02,12,36,15.80
2019,04,02,12,37,15.80
2019,04,02,12,38,15.80
2019,04,02,12,39,15.90
2019,04,02,12,40,15.90
2019,04,02,12,41,16.00
2019,04,02,12,42,16.10
2019,04,02,12,43,16.20
2019,04,02,12,44,16.20
2019,04,02,12,45,16.30
2019,04,02,12,46,16.30
2019,04,02,12,47,16.30
2019,04,02,12,48,16.30
2019,04,02,12,49,16.40
2019,04,02,12,50,16.40
2019,04,02,12,51,16.40
2019,04,02,12,52,16.50
2019,04,02,12,53,16.50
2019,04,02,12,54,16.50
2019,04,02,12,55,16.60
2019,04,02,12,56,16.60
2019,04,02,12,57,16.60
2019,04,02,12,58,16.70
2019,04,02,12,59,16.70
2019,04,02,13,00,16.70
2019,04,02,13,01,16.70
2019,04,02,13,02,16.70
2019,04,02,13,03,16.70
2019,04,02,13,04,16.70
2019,04,02,13,05,16.70
2019,04,02,13,06,16.70
2019,04,02,13,07,16.70
2019,04,02,13,08,16.70
2019,04,02,13,09,16.70
2019,04,02,13,10,16.70
2019,04,02,13,11,16.70
2019,04,02,13,12,16.70
2019,04,02,13,13,16.70
2019,04,02,13,14,16.80
2019,04,02,13,15,16.80
2019,04,02,13,16,16.90
2019,04,02,13,17,16.90
2019,04,02,13,18,17.00
2019,04,02,13,19,17.00
2019,04,02,13,20,17.00
2019,04,02,13,21,17.00
2019,04,02,13,22,16.90
2019,04,02,13,23,16.90
2019,04,02,13,24,16.90
2019,04,02,13,25,16.90
2019,04,02,13,26,17.00
2019,04,02,13,27,17.10
2019,04,02,13,28,17.10
2019,04,02,13,29,17.20
2019,04,02,13,30,17.20
2019,04,02,13,31,17.20
2019,04,02,13,32,17.20
2019,04,02,13,33,17.10
2019,04,02,13,34,17.10
2019,04,02,13,35,17.20
2019,04,02,13,36,17.20
2019,04,02,13,37,17.20
2019,04,02,13,38,17.20
2019,04,02,13,39,17.20
2019,04,02,13,40,17.20
2019,04,02,13,41,17.20
2019,04,02,13,42,17.30
2019,04,02,13,43,17.30
2019,04,02,13,44,17.30
2019,04,02,13,45,17.40
2019,04,02,13,46,17.40
2019,04,02,13,47,17.40
2019,04,02,13,48,17.40
2019,04,02,13,49,17.50
2019,04,02,13,50,17.50
2019,04,02,13,51,17.50
2019,04,02,13,52,17.40
2019,04,02,13,53,17.40
2019,04,02,13,54,17.40
2019,04,02,13,55,17.40
2019,04,02,13,56,17.30
2019,04,02,13,57,17.30
2019,04,02,13,58,17.30
2019,04,02,13,59,17.20
2019,04,02,14,00,17.30
2019,04,02,14,01,17.30
2019,04,02,14,02,17.30
2019,04,02,14,03,17.30
2019,04,02,14,04,17.40
2019,04,02,14,05,17.40
2019,04,02,14,06,17.40
2019,04,02,14,07,17.40
2019,04,02,14,08,17.40
2019,04,02,14,09,17.40
2019,04,02,14,10,17.40
2019,04,02,14,11,17.40
2019,04,02,14,12,17.30
2019,04,02,14,13,17.30
2019,04,02,14,14,17.30
2019,04,02,14,15,17.30
2019,04,02,14,16,17.30
2019,04,02,14,17,17.30
2019,04,02,14,18,17.40
2019,04,02,14,19,17.40
2019,04,02,14,20,17.40
2019,04,02,14,21,17.40
2019,04,02,14,22,17.40
2019,04,02,14,23,17.50
2019,04,02,14,24,17.50
2019,04,02,14,25,17.60
2019,04,02,14,26,17.60
2019,04,02,14,27,17.60
2019,04,02,14,28,17.60
2019,04,02,14,29,17.70
2019,04,02,14,30,17.70
2019,04,02,14,31,17.70
2019,04,02,14,32,17.80
2019,04,02,14,33,17.80
2019,04,02,14,34,17.80
2019,04,02,14,35,17.80
2019,04,02,14,36,17.70
2019,04,02,14,37,17.70
2019,04,02,14,38,17.70
2019,04,02,14,39,17.70
2019,04,02,14,40,17.70
2019,04,02,14,41,17.70
2019,04,02,14,42,17.70
2019,04,02,14,43,17.70
2019,04,02,14,44,17.60
2019,04,02,14,45,17.60
2019,04,02,14,46,17.60
2019,04,02,14,47,17.60
2019,04,02,14,48,17.60
2019,04,02,14,49,17.60
2019,04,02,14,50,17.60
2019,04,02,14,51,17.60
2019,04,02,14,52,17.60
2019,04,02,14,53,17.60
2019,04,02,14,54,17.70
2019,04,02,14,55,17.70
2019,04,02,14,56,17.70
2019,04,02,14,57,17.80
2019,04,02,14,58,17.80
2019,04,02,14,59,17.80
2019,04,02,15,00,17.80
2019,04,02,15,01,17.80
2019,04,02,15,02,17.80
2019,04,02,15,03,17.90
2019,04,02,15,04,17.90
2019,04,02,15,05,17.90
2019,04,02,15,06,17.80
2019,04,02,15,07,17.80
2019,04,02,15,08,17.80
2019,04,02,15,09,17.70
2019,04,02,15,10,17.50
2019,04,02,15,11,17.40
2019,04,02,15,12,17.40
2019,04,02,15,13,17.30
2019,04,02,15,14,17.20
2019,04,02,15,15,17.20
2019,04,02,15,16,17.10
2019,04,02,15,17,17.10
2019,04,02,15,18,17.10
2019,04,02,15,19,17.10
2019,04,02,15,20,17.10
2019,04,02,15,21,17.00
2019,04,02,15,22,17.00
2019,04,02,15,23,17.00
2019,04,02,15,24,17.00
2019,04,02,15,25,16.90
2019,04,02,15,26,16.90
2019,04,02,15,27,16.90
2019,04,02,15,28,16.80
2019,04,02,15,29,16.80
2019,04,02,15,30,16.80
2019,04,02,15,31,16.80
2019,04,02,15,32,16.80
2019,04,02,15,33,16.80
2019,04,02,15,34,16.80
2019,04,02,15,35,16.80
2019,04,02,15,36,16.80
2019,04,02,15,37,16.80
2019,04,02,15,38,16.80
2019,04,02,15,39,16.90
2019,04,02,15,40,16.90
2019,04,02,15,41,16.90
2019,04,02,15,42,16.90
2019,04,02,15,43,16.90
2019,04,02,15,44,17.00
2019,04,02,15,45,17.00
2019,04,02,15,46,17.00
2019,04,02,15,47,17.10
2019,04,02,15,48,17.10
2019,04,02,15,49,17.20
2019,04,02,15,50,17.20
2019,04,02,15,51,17.30
2019,04,02,15,52,17.30
2019,04,02,15,53,17.40
2019,04,02,15,54,17.50
2019,04,02,15,55,17.50
2019,04,02,15,56,17.60
2019,04,02,15,57,17.70
2019,04,02,15,58,17.70
2019,04,02,15,59,17.80
2019,04,02,16,00,17.80
2019,04,02,16,01,17.80
2019,04,02,16,02,17.90
2019,04,02,16,03,17.90
2019,04,02,16,04,18.00
2019,04,02,16,05,18.00
2019,04,02,16,06,18.10
2019,04,02,16,07,18.10
2019,04,02,16,08,18.20
2019,04,02,16,09,18.20
2019,04,02,16,10,18.20
2019,04,02,16,11,18.20
2019,04,02,16,12,18.30
2019,04,02,16,13,18.30
2019,04,02,16,14,18.30
2019,04,02,16,15,18.30
2019,04,02,16,16,18.40
2019,04,02,16,17,18.40
2019,04,02,16,18,18.50
2019,04,02,16,19,18.40
2019,04,02,16,20,18.40
2019,04,02,16,21,18.40
2019,04,02,16,22,18.30
2019,04,02,16,23,18.30
2019,04,02,16,24,18.30
2019,04,02,16,25,18.20
2019,04,02,16,26,18.20
2019,04,02,16,27,18.10
2019,04,02,16,28,18.00
2019,04,02,16,29,17.90
2019,04,02,16,30,17.90
2019,04,02,16,31,17.80
2019,04,02,16,32,17.80
2019,04,02,16,33,17.70
2019,04,02,16,34,17.70
2019,04,02,16,35,17.60
2019,04,02,16,36,17.60
2019,04,02,16,37,17.60
2019,04,02,16,38,17.60
2019,04,02,16,39,17.50
2019,04,02,16,40,17.50
2019,04,02,16,41,17.40
2019,04,02,16,42,17.40
2019,04,02,16,43,17.40
2019,04,02,16,44,17.40
2019,04,02,16,45,17.40
2019,04,02,16,46,17.40
2019,04,02,16,47,17.40
2019,04,02,16,48,17.40
2019,04,02,16,49,17.40
2019,04,02,16,50,17.30
2019,04,02,16,51,17.30
2019,04,02,16,52,17.20
2019,04,02,16,53,17.20
2019,04,02,16,54,17.20
2019,04,02,16,55,17.10
2019,04,02,16,56,17.10
2019,04,02,16,57,17.10
2019,04,02,16,58,17.10
2019,04,02,16,59,17.10
2019,04,02,17,00,17.10
2019,04,02,17,01,17.10
2019,04,02,17,02,17.10
2019,04,02,17,03,17.10
2019,04,02,17,04,17.10
2019,04,02,17,05,17.10
2019,04,02,17,06,17.10
2019,04,02,17,07,17.00
2019,04,02,17,08,17.00
2019,04,02,17,09,16.90
2019,04,02,17,10,16.90
2019,04,02,17,11,16.90
2019,04,02,17,12,16.80
2019,04,02,17,13,16.80
2019,04,02,17,14,16.80
2019,04,02,17,15,16.80
2019,04,02,17,16,16.70
2019,04,02,17,17,16.70
2019,04,02,17,18,16.70
2019,04,02,17,19,16.70
2019,04,02,17,20,16.70
2019,04,02,17,21,16.70
2019,04,02,17,22,16.70
2019,04,02,17,23,16.70
2019,04,02,17,24,16.70
2019,04,02,17,25,16.60
2019,04,02,17,26,16.60
2019,04,02,17,27,16.60
2019,04,02,17,28,16.60
2019,04,02,17,29,16.60
2019,04,02,17,30,16.60
2019,04,02,17,31,16.50
2019,04,02,17,32,16.50
2019,04,02,17,33,16.40
2019,04,02,17,34,16.40
2019,04,02,17,35,16.40
2019,04,02,17,36,16.30
2019,04,02,17,37,16.30
2019,04,02,17,38,16.30
2019,04,02,17,39,16.30
2019,04,02,17,40,16.30
2019,04,02,17,41,16.40
2019,04,02,17,42,16.40
2019,04,02,17,43,16.40